Home > Weather > Tarn Taran Sahib > Past weeks

Flag for India Past Weather in Tarn Taran Sahib, Punjab, India — Yesterday and Last 2 Weeks

Now
84 °F

Fog.


Feels Like: 104 °F
Forecast: 82 / 100 °F
Wind: 2 mph from North

Location: Amritsar Airport

Current Time: Jul 23, 2016 at 8:28:17 PM

Latest Report: Jul 23, 2016 at 8:00 PM


Visibility: 2 mi

Pressure: 29.59 "Hg

Humidity: 100%

Dew Point: 84 °F

Location of Tarn Taran SahibLocation

Past Weather in Tarn Taran Sahib — Graph

°F

Tarn Taran Sahib Temperature Yesterday

Maximum temperature yesterday: 95 °F (at 2:30 PM)
Minimum temperature yesterday: 84 °F (at 6:30 AM)
Average temperature yesterday: 89 °F

High & Low Weather Summary for the Past Weeks

 TemperatureHumidityPressure
High99 °F (Jul 21, 1:00 PM)100% (Jul 9, 1:30 PM)29.65 "Hg (Jul 9, 1:30 PM)
Low73 °F (Jul 17, 5:00 AM)49% (Jul 10, 3:00 PM)29.36 "Hg (Jul 8, 7:30 PM)
Average87 °F86%29.51 "Hg
* Reported Jul 8 7:00 PM — Jul 23 7:00 PM, Tarn Taran Sahib, Weather by CustomWeather, © 2016

Note: Actual official high and low records may vary slightly from our data, if they occured in-between our weather recording intervals... More about our weather records

Advertising

Tarn Taran Sahib Weather History for the Previous 24 Hours

Scroll right to see more
 ConditionsComfort  
Time TempWeatherWind HumidityBarometerVisibility
7:00 PM
Sat, Jul 23
86 °FFog.2 mph94%29.56 "Hg2 mi
6:00 PM86 °FFog.3 mph94%29.56 "Hg3 mi
5:30 PM88 °FFog.6 mph84%29.56 "Hg3 mi
5:00 PM88 °FFog.8 mph84%29.56 "Hg3 mi
4:30 PM88 °FFog.8 mph84%29.56 "Hg3 mi
4:00 PM88 °FFog.7 mph84%29.59 "Hg3 mi
3:30 PM88 °FFog.7 mph84%29.59 "Hg3 mi
3:00 PM88 °FFog.8 mph79%29.56 "Hg3 mi
2:30 PM88 °FFog.3 mph79%29.59 "Hg3 mi
2:00 PM88 °FFog.9 mph79%29.62 "Hg3 mi
1:30 PM88 °FFog.7 mph79%29.62 "Hg3 mi
12:30 PM84 °FFog.12 mph84%29.65 "Hg3 mi
12:00 PM82 °FThunderstorms. More clouds than sun.13 mph94%29.65 "Hg3 mi
11:30 AM81 °FThunderstorms. More clouds than sun.13 mph100%29.65 "Hg3 mi
11:00 AM81 °FThunderstorms. More clouds than sun.13 mph100%29.62 "Hg2 mi
10:30 AM81 °FThunderstorms. More clouds than sun.8 mph100%29.59 "Hg2 mi
10:00 AM81 °FThunderstorms. More clouds than sun.10 mph100%29.59 "Hg2 mi
9:30 AM82 °FThunderstorms. More clouds than sun.5 mph94%29.59 "Hg2 mi
9:00 AM79 °FThunderstorms. More clouds than sun.12 mph100%29.59 "Hg2 mi
8:30 AM77 °FThunderstorms. More clouds than sun.9 mph100%29.59 "Hg2 mi
8:00 AM77 °FThunderstorms. More clouds than sun.2 mph100%29.59 "Hg2 mi
7:30 AM75 °FThunderstorms. More clouds than sun.7 mph100%29.56 "Hg1 mi
7:00 AM73 °FThunderstorms. More clouds than sun.9 mph100%29.56 "Hg1 mi
6:00 AM82 °FThunderstorms. Mostly cloudy.12 mph89%29.53 "Hg2 mi
5:30 AM84 °FThunderstorms. Partly cloudy.2 mph84%29.47 "Hg2 mi
5:00 AM86 °FThunderstorms. Partly cloudy.No wind94%29.47 "Hg2 mi
4:30 AM88 °FThunderstorms. Partly cloudy.No wind100%29.50 "Hg2 mi
12:30 AM90 °FFog.No wind94%29.53 "Hg2 mi
12:00 AM90 °FFog.No wind84%29.53 "Hg2 mi
10:30 PM
Fri, Jul 22
90 °FFog.No wind84%29.50 "Hg2 mi
10:00 PM90 °FFog.No wind79%29.50 "Hg2 mi
9:30 PM90 °FFog.No wind75%29.50 "Hg2 mi
9:00 PM88 °FFog.No wind79%29.50 "Hg2 mi
8:30 PM88 °FFog.No wind79%29.50 "Hg2 mi
8:00 PM90 °FFog.2 mph75%29.47 "Hg2 mi
Weather by CustomWeather, © 2016

See weather overviewHow to use our weather pages